Printer-friendly version

IAU Minor Planet Center

Minor Planet Center

MPEC 2003-S42 : 2003 SV84

The following Minor Planet Electronic Circular may be linked-to from your own Web pages, but must not otherwise be redistributed electronically.


Read MPEC 2003-S41 Read MPEC 2003-S43


M.P.E.C. 2003-S42                                Issued 2003 Sept. 22, 03:33 UT

     The Minor Planet Electronic Circulars contain information on unusual
         minor planets and routine data on comets.  They are published
   on behalf of Commission 20 of the International Astronomical Union by the
          Minor Planet Center, Smithsonian Astrophysical Observatory,
                          Cambridge, MA 02138, U.S.A.

         Supported in part by the Steven and Michele Kirsch Foundation
             Prepared using the Tamkin Foundation Computer Network

                              MPC@CFA.HARVARD.EDU
          URL http://cfa-www.harvard.edu/iau/mpc.html  ISSN 1523-6714

                                   2003 SV84

Observations:
     K03S84V* C2003 09 20.35785 02 29 27.56 +07 07 31.2          19.3        704
     K03S84V  C2003 09 20.36998 02 29 26.96 +07 07 25.2          19.1        704
     K03S84V  C2003 09 20.38273 02 29 26.36 +07 07 16.0          19.5        704
     K03S84V  C2003 09 20.39507 02 29 25.69 +07 07 08.0          19.9        704
     K03S84V  C2003 09 20.40717 02 29 25.18 +07 06 59.4          19.7        704
     K03S84V  C2003 09 21.30984 02 28 44.59 +06 56 50.3          18.9        704
     K03S84V  C2003 09 21.32189 02 28 43.87 +06 56 42.0          19.6        704
     K03S84V  C2003 09 21.33415 02 28 43.46 +06 56 32.6          19.4        704
     K03S84V  C2003 09 21.35069 02 28 42.64 +06 56 23.5          18.5 R      G90
     K03S84V  C2003 09 21.35859 02 28 42.22 +06 56 17.4          19.4        704
     K03S84V  C2003 09 21.36120 02 28 42.09 +06 56 15.6          18.5 R      G90
     K03S84V  C2003 09 21.37170 02 28 41.62 +06 56 07.8          18.9 R      G90
     K03S84V  C2003 09 21.92242 02 28 15.95 +06 49 52.6                      246
     K03S84V  C2003 09 21.92318 02 28 15.92 +06 49 52.1                      246
     K03S84V  C2003 09 21.92610 02 28 15.79 +06 49 50.7                      246
     K03S84V  C2003 09 21.92714 02 28 15.76 +06 49 50.2                      246
     K03S84V  C2003 09 21.92826 02 28 15.70 +06 49 49.3                      246
     K03S84V  C2003 09 21.92925 02 28 15.65 +06 49 48.7                      246
     K03S84V  C2003 09 22.00829902 28 11.82 +06 48 53.8          18.7 V      611
     K03S84V  C2003 09 22.01192102 28 11.73 +06 48 52.1                      611

Observer details:
246 Klet Observatory-KLENOT.  Observers J. Ticha, M. Tichy.  1.06-m KLENOT
    Telescope + CCD.
611 Starkenburg.  Observer F. Hormuth.  0.45-m f/4.4 reflector + CCD.
704 Lincoln Laboratory ETS, New Mexico.  Observers M. Blythe, F. Shelly,
    M. Bezpalko, R. Huber, L. Manguso, D. Torres, R. Kracke, M. McCleary,
    H. Stange.  Measurers J. Stuart, R. Sayer, J. Evans, J. Kommers.  1.0-m
    f/2.15 reflector + CCD.
G90 Three Buttes Observatory, Tucson.  Observer G. R. Jones.  0.32-m
    Ritchey-Chretien + CCD.

Orbital elements:
2003 SV84
Epoch 2003 Sept. 18.0 TT = JDT 2452900.5                MPC
M  27.85624              (2000.0)            P               Q
n   0.18385485     Peri.  105.11401     +0.19302993     +0.98110641
a   3.0630399      Node   175.94740     -0.95607874     +0.19105695
e   0.6192574      Incl.   10.62085     -0.22057400     +0.03045425
P   5.36           H   16.0           G   0.15
From 20 observations 2003 Sept. 20-22.

Ephemeris:
2003 SV84                a,e,i = 3.06, 0.62, 11                  q = 1.1662
Date    TT    R. A. (2000) Decl.     Delta      r     Elong.  Phase     V
2003 09 18    02 31.11   +07 33.7    1.208    2.056   136.3    19.7    19.0
2003 09 28    02 22.96   +05 40.0    1.214    2.132   148.1    14.4    18.9
2003 10 08    02 12.53   +03 45.1    1.242    2.208   160.0     8.9    18.8
2003 10 18    02 01.20   +01 59.5    1.296    2.283   169.2     4.7    18.8
2003 10 28    01 50.38   +00 32.8    1.378    2.357   167.0     5.5    19.0
2003 11 07    01 41.27   -00 29.2    1.487    2.430   156.9     9.2    19.4
2003 11 17    01 34.59   -01 04.9    1.620    2.501   145.9    12.8    19.8
2003 11 27    01 30.62   -01 16.3    1.775    2.572   135.3    15.7    20.2
2003 12 07    01 29.33   -01 06.8    1.947    2.641   125.2    17.7    20.5
2003 12 17    01 30.47   -00 40.7    2.133    2.710   115.7    19.1    20.8
2003 12 27    01 33.72   -00 01.6    2.329    2.777   106.7    19.8    21.0
2004 01 06    01 38.77   +00 47.0    2.531    2.842    98.1    20.0    21.3
2004 01 16    01 45.31   +01 42.4    2.737    2.907    89.9    19.8    21.5
2004 01 26    01 53.07   +02 42.3    2.942    2.970    82.0    19.2    21.7
2004 02 05    02 01.83   +03 44.9    3.145    3.032    74.4    18.2    21.8
2004 02 15    02 11.41   +04 48.6    3.343    3.093    67.0    17.1    22.0

Brian G. Marsden             (C) Copyright 2003 MPC           M.P.E.C. 2003-S42

Read MPEC 2003-S41 Read MPEC 2003-S43


Our Web policy. Index to the CBAT/MPC/ICQ pages.


Valid HTML 4.01!